This demonstration page uses our WeatherBlox Daily Observations layout. Learn more.

Left ArrowRight Arrow

39.92423, -83.80882

Hourly Observations for February 3, 2021

Temp ( °F °C ) Dew Point ( °F °C ) Humidity (%) Winds ( mph kmh ) Pressure ( in mb ) Visibility ( mi km ) Precip ( " mm )
12:56 am 00:56 Clear 19 -7.2 18 -7.8 96 96 WNW 9 15 30.07 1018 10 16 0.00 0.00
1:56 am 01:56 Clear 19 -7.2 19 -7.2 100 100 WNW 13 20 30.07 1018 10 16 0.00 0.00
2:56 am 02:56 Clear 19 -7.2 17 -8.3 92 92 WNW 10 17 30.08 1019 10 16 0.00 0.00
3:56 am 03:56 Clear 18 -7.8 17 -8.3 96 96 WNW 10 17 30.08 1019 10 16 0.00 0.00
4:56 am 04:56 Clear 17 -8.3 16 -8.9 95 95 NW 9 15 30.08 1019 10 16 0.00 0.00
5:56 am 05:56 Clear 15 -9.4 14 -10 95 95 WNW 7 11 30.10 1019 10 16 0.00 0.00
6:56 am 06:56 Clear 12 -11.1 12 -11.1 100 100 WNW 6 9 30.11 1020 10 16 0.00 0.00
7:56 am 07:56 Sunny 13 -10.6 12 -11.1 96 96 WNW 8 13 30.12 1020 10 16 0.00 0.00
8:56 am 08:56 Sunny 17 -8.3 16 -8.9 95 95 WNW 9 15 30.13 1020 10 16 0.00 0.00
9:56 am 09:56 Sunny 20 -6.7 17 -8.3 89 89 WNW 9 15 30.14 1021 10 16 0.00 0.00
10:56 am 10:56 Sunny 23 -5 17 -8.3 78 78 WNW 13 20 30.14 1021 10 16 0.00 0.00
11:56 am 11:56 Sunny 26 -3.3 19 -7.2 75 75 NW 12 19 30.13 1020 10 16 0.00 0.00
12:56 pm 12:56 Sunny 29 -1.7 20 -6.7 69 69 WNW 12 19 30.11 1020 10 16 0.00 0.00
1:56 pm 13:56 Sunny 30 -1.1 22 -5.6 72 72 WNW 13 20 30.09 1019 10 16 0.00 0.00
2:56 pm 14:56 Sunny 30 -1.1 23 -5 75 75 WNW 13 20 30.10 1019 10 16 0.00 0.00
3:56 pm 15:56 Sunny 30 -1.1 24 -4.4 79 79 WNW 13 20 30.10 1019 10 16 0.00 0.00
4:56 pm 16:56 Sunny 29 -1.7 23 -5 78 78 WNW 10 17 30.10 1019 10 16 0.00 0.00
5:56 pm 17:56 Sunny 25 -3.9 21 -6.1 85 85 WNW 7 11 30.11 1020 10 16 0.00 0.00
6:56 pm 18:56 Clear 20 -6.7 19 -7.2 96 96 W 6 9 30.13 1020 10 16 0.00 0.00
7:56 pm 19:56 Clear 20 -6.7 19 -7.2 96 96 WNW 7 11 30.11 1020 10 16 0.00 0.00
8:45 pm 20:45 Clear with Mist and Fog 16 -9 14 -10 93 93 Calm 30.14 1021 2 3 0.00 0.00
8:56 pm 20:56 Clear with Mist and Fog 20 -6.7 20 -6.7 100 100 Calm 30.11 1020 5 8 0.00 0.00
9:13 pm 21:13 Clear with Mist and Fog 18 -8 18 -8 100 100 Calm 30.15 1021 1 2 0.00 0.00
9:15 pm 21:15 Clear with Mist and Fog 18 -8 16 -9 93 93 Calm 30.15 1021 1 1 0.00 0.00
9:27 pm 21:27 Clear with Freezing Fog 12 -11 12 -11 100 100 Calm 30.15 1021 0 0 0.00 0.00
9:42 pm 21:42 Mostly Cloudy with Freezing Fog 12 -11 12 -11 100 100 Calm 30.15 1021 0 0 0.00 0.00
9:56 pm 21:56 Mostly Cloudy with Freezing Fog 12 -11.1 11 -11.7 95 95 Calm 30.11 1020 0 0 0.00 0.00
10:33 pm 22:33 Clear with Freezing Fog 16 -9 16 -9 100 100 SW 5 7 30.15 1021 0 0 0.00 0.00
10:56 pm 22:56 Mostly Cloudy with Freezing Fog 8 -13.3 6 -14.4 92 92 Calm 30.11 1020 0 0 0.00 0.00
11:36 pm 23:36 Mostly Cloudy with Mist and Fog 9 -13 9 -13 100 100 Calm 30.17 1022 1 1 0.00 0.00
11:38 pm 23:38 Partly Cloudy with Mist and Fog 9 -13 7 -14 92 92 Calm 30.17 1022 1 2 0.00 0.00
11:44 pm 23:44 Partly Cloudy with Mist and Fog 7 -14 5 -15 92 92 Calm 30.17 1022 4 6 0.00 0.00
11:53 pm 23:53 Mostly Cloudy with Mist and Fog 7 -14 5 -15 92 92 Calm 30.17 1022 1 1 0.00 0.00
11:56 pm 23:56 Mostly Cloudy with Freezing Fog 7 -13.9 5 -15 91 91 Calm 30.11 1020 1 1 0.00 0.00

Powered by AerisWeather